Date String (YYYY-MM-DD hh:mm:ss) UTC,Instrument flags,absolute air pressure of the measurement (hPa),sample flow rate (lpm),inlet stack bypass flow (lpm),air temperature of the measurement (°C),ambient temperature measured by the external sensor (°C),aerosol sample conditioner tube jacket temperature (°C),OPC LED temperature (°C),internal box temperature (°C),relative humidity of the measurement (%),span deviation,mass concentration of particles derived from Lorenz-Mie calculation of OPC scattering (μg/m³),mass concentration of particles derived from Lorenz-Mie calculation of OPC scattering (μg/m³),mass concentration of particles derived from Lorenz-Mie calculation of OPC scattering (μg/m³)
DateTimeUTC,F1_M11,P_M11,Q1_M11,Q2_M11,T1_M11,T2_M11,T3_M11,T4_M11,T5_M11,U1_M11,ZSPAN_M11,X0_M11,X2_M11,X1_M11
2023-06-29 07:00:00,SystemResetWarning,0829.7,5.01,000.00,029.4,028.3,000.0,037.8,031.0,30.9,0000.0,0016.37,0006.87,0005.31
2023-06-29 07:01:00,SystemResetWarning,0829.7,5.00,000.00,029.4,028.4,000.0,037.8,031.0,30.9,-000.4,0016.94,0006.87,0005.31
2023-06-29 07:02:00,SystemResetWarning,0829.8,5.00,000.00,029.5,028.4,000.0,037.9,031.1,30.9,-000.1,0017.99,0006.88,0005.32
2023-06-29 07:03:00,SystemResetWarning,0829.8,4.99,000.00,029.5,028.0,000.0,037.9,031.1,30.8,-001.1,0017.96,0006.87,0005.34
2023-06-29 07:04:00,SystemResetWarning,0829.8,5.00,000.00,029.5,026.2,000.0,037.7,030.9,30.6,-001.4,0018.56,0006.93,0005.35
2023-06-29 07:05:00,SystemResetWarning,0829.9,5.00,000.00,029.4,025.2,000.0,037.7,030.7,30.4,-001.1,0019.28,0006.97,0005.33
2023-06-29 07:06:00,SystemResetWarning,0829.9,5.00,000.00,029.3,025.2,000.0,037.7,030.4,30.7,-001.4,0020.06,0007.09,0005.33
2023-06-29 07:07:00,SystemResetWarning,0829.9,5.02,000.00,029.2,025.6,000.0,037.7,030.4,31.0,-001.4,0020.12,0007.14,0005.34
2023-06-29 07:08:00,SystemResetWarning,0830.0,5.00,000.00,029.1,026.0,000.0,037.7,030.5,31.1,-001.1,0019.95,0007.12,0005.33
2023-06-29 07:09:00,SystemResetWarning,0830.0,5.00,000.00,029.1,026.4,000.0,037.7,030.6,31.3,-001.3,0020.18,0007.16,0005.32
2023-06-29 07:10:00,SystemResetWarning,0830.0,4.99,000.00,029.1,026.7,000.0,037.7,030.6,31.2,-001.1,0020.84,0007.16,0005.31
2023-06-29 07:11:00,SystemResetWarning,0830.0,5.01,000.00,029.2,027.0,000.0,037.7,030.7,31.1,-000.8,0021.11,0007.13,0005.32
2023-06-29 07:12:00,SystemResetWarning,0830.0,5.01,000.00,029.2,027.3,000.0,037.7,030.7,31.1,-000.6,0020.26,0007.09,0005.33
2023-06-29 07:13:00,SystemResetWarning,0830.1,5.00,000.00,029.2,027.5,000.0,037.7,030.8,31.2,-000.7,0018.79,0007.00,0005.30
2023-06-29 07:14:00,SystemResetWarning,0830.1,4.99,000.00,029.2,027.7,000.0,037.7,030.8,31.1,-001.1,0018.40,0006.98,0005.29
2023-06-29 07:15:00,SystemResetWarning,0830.1,5.00,000.00,029.3,027.8,000.0,037.8,030.9,30.6,-001.1,0017.36,0006.93,0005.27
2023-06-29 07:16:00,SystemResetWarning,0830.1,5.01,000.00,029.3,028.0,000.0,037.8,030.9,30.5,-001.1,0016.38,0006.88,0005.25
2023-06-29 07:17:00,SystemResetWarning,0830.1,5.01,000.00,029.3,028.1,000.0,037.8,030.9,30.4,-001.1,0015.87,0006.79,0005.24
2023-06-29 07:18:00,SystemResetWarning,0830.1,4.99,000.00,029.3,028.2,000.0,037.8,031.0,30.1,-000.4,0015.42,0006.64,0005.20
2023-06-29 07:19:00,SystemResetWarning,0830.3,4.99,000.00,029.4,028.2,000.0,037.8,031.0,30.2,-000.7,0014.95,0006.57,0005.19
2023-06-29 07:20:00,SystemResetWarning,0830.2,4.99,000.00,029.4,028.3,000.0,037.8,031.1,30.2,-001.0,0015.12,0006.54,0005.18
2023-06-29 07:21:00,SystemResetWarning,0830.2,5.00,000.00,029.5,028.4,000.0,037.9,031.1,30.2,-001.1,0014.41,0006.51,0005.17
2023-06-29 07:22:00,SystemResetWarning,0830.2,5.00,000.00,029.5,028.4,000.0,037.9,031.1,30.1,-000.6,0014.14,0006.50,0005.14
2023-06-29 07:23:00,SystemResetWarning,0830.3,5.00,000.00,029.5,028.5,000.0,037.9,031.1,30.0,-001.3,0014.27,0006.43,0005.11
2023-06-29 07:24:00,SystemResetWarning,0830.3,5.00,000.00,029.5,028.5,000.0,037.9,031.2,29.9,-002.1,0014.12,0006.46,0005.09
2023-06-29 07:25:00,SystemResetWarning,0830.3,5.00,000.00,029.6,028.6,000.0,038.0,031.2,29.8,-001.1,0013.64,0006.36,0005.07
2023-06-29 07:26:00,SystemResetWarning,0830.3,5.00,000.00,029.6,028.6,000.0,038.0,031.2,29.7,0000.0,0013.15,0006.28,0005.04
2023-06-29 07:27:00,SystemResetWarning,0830.3,4.99,000.00,029.6,027.2,000.0,037.9,031.1,29.7,-000.5,0013.61,0006.21,0005.03
2023-06-29 07:28:00,SystemResetWarning,0830.3,5.01,000.00,029.5,025.6,000.0,037.8,030.9,29.8,0000.0,0013.76,0006.22,0005.03
2023-06-29 07:29:00,SystemResetWarning,0830.3,5.01,000.00,029.4,025.2,000.0,037.8,030.6,29.9,-002.2,0013.79,0006.27,0005.06
2023-06-29 07:30:00,SystemResetWarning,0830.3,5.00,000.00,029.3,025.4,000.0,037.8,030.4,30.1,-003.8,0013.87,0006.30,0005.06
2023-06-29 07:31:00,SystemResetWarning,0830.3,5.00,000.00,029.2,025.8,000.0,037.8,030.5,30.2,-003.6,0013.39,0006.27,0005.05
2023-06-29 07:32:00,SystemResetWarning,0830.4,5.00,000.00,029.2,026.3,000.0,037.8,030.6,30.2,-003.7,0013.61,0006.29,0005.06
2023-06-29 07:33:00,SystemResetWarning,0830.4,5.00,000.00,029.2,026.6,000.0,037.8,030.6,30.3,-003.8,0014.30,0006.27,0005.07
2023-06-29 07:34:00,SystemResetWarning,0830.6,4.98,000.00,029.2,027.0,000.0,037.8,030.7,30.2,-003.6,0014.32,0006.30,0005.06
2023-06-29 07:35:00,SystemResetWarning,0830.5,5.01,000.00,029.2,027.2,000.0,037.8,030.8,30.2,-002.5,0015.19,0006.29,0005.09
2023-06-29 07:36:00,SystemResetWarning,0830.6,5.01,000.00,029.3,027.5,000.0,037.8,030.8,30.1,-002.3,0015.40,0006.32,0005.09
2023-06-29 07:37:00,SystemResetWarning,0830.6,4.99,000.00,029.3,027.6,000.0,037.8,030.9,29.9,-002.6,0015.65,0006.40,0005.11
2023-06-29 07:38:00,SystemResetWarning,0830.6,5.00,000.00,029.3,027.8,000.0,037.8,030.9,29.9,-000.6,0015.23,0006.45,0005.12
2023-06-29 07:39:00,SystemResetWarning,0830.7,5.01,000.00,029.3,028.0,000.0,037.8,030.9,29.8,0000.0,0014.80,0006.44,0005.12
2023-06-29 07:40:00,SystemResetWarning,0830.7,5.00,000.00,029.4,028.1,000.0,037.9,031.0,29.8,0000.0,0014.80,0006.49,0005.11
2023-06-29 07:41:00,SystemResetWarning,0830.7,5.02,000.00,029.4,028.2,000.0,037.9,031.0,29.7,0000.0,0014.63,0006.48,0005.12
2023-06-29 07:42:00,SystemResetWarning,0830.7,5.00,000.00,029.4,028.3,000.0,037.9,031.1,29.7,-000.0,0014.49,0006.49,0005.13
2023-06-29 07:43:00,SystemResetWarning,0830.7,4.99,000.00,029.5,028.3,000.0,037.9,031.1,29.7,-000.2,0014.68,0006.44,0005.12
2023-06-29 07:44:00,SystemResetWarning,0830.9,5.00,000.00,029.5,028.4,000.0,037.9,031.1,29.7,0000.0,0014.04,0006.41,0005.13
2023-06-29 07:45:00,SystemResetWarning,0830.9,5.00,000.00,029.5,028.4,000.0,038.0,031.2,29.8,0000.0,0013.23,0006.42,0005.13
2023-06-29 07:46:00,SystemResetWarning,0830.9,5.01,000.00,029.6,028.5,000.0,038.0,031.2,29.8,-000.3,0012.81,0006.45,0005.13
2023-06-29 07:47:00,SystemResetWarning,0830.9,5.00,000.00,029.6,028.5,000.0,038.0,031.2,30.2,0000.0,0013.91,0006.50,0005.13
2023-06-29 07:48:00,SystemResetWarning,0830.9,5.00,000.00,029.6,028.6,000.0,038.0,031.3,30.6,0000.0,0014.05,0006.54,0005.14
2023-06-29 07:49:00,SystemResetWarning,0830.9,4.99,000.00,029.6,028.0,000.0,038.0,031.2,30.6,0000.7,0014.91,0006.55,0005.16
2023-06-29 07:50:00,SystemResetWarning,0830.9,4.99,000.00,029.6,026.0,000.0,037.9,031.0,30.7,0000.8,0015.45,0006.60,0005.19
2023-06-29 07:51:00,SystemResetWarning,0830.9,5.01,000.00,029.5,025.3,000.0,037.8,030.8,30.9,0000.1,0016.12,0006.57,0005.21
2023-06-29 07:52:00,SystemResetWarning,0830.9,5.01,000.00,029.4,025.3,000.0,037.8,030.5,31.2,-000.0,0017.24,0006.65,0005.24
2023-06-29 07:53:00,SystemResetWarning,0830.9,4.99,000.00,029.3,025.7,000.0,037.8,030.5,31.4,-000.1,0017.39,0006.66,0005.27
2023-06-29 07:54:00,SystemResetWarning,0830.9,5.00,000.00,029.3,026.1,000.0,037.9,030.6,31.3,-000.2,0017.53,0006.72,0005.29
2023-06-29 07:55:00,SystemResetWarning,0831.0,5.00,000.00,029.3,026.5,000.0,037.9,030.7,30.8,-000.3,0018.25,0006.76,0005.28
2023-06-29 07:56:00,SystemResetWarning,0831.0,5.00,000.00,029.3,026.9,000.0,037.9,030.7,30.6,0000.0,0018.07,0006.71,0005.28
2023-06-29 07:57:00,SystemResetWarning,0831.0,5.01,000.00,029.3,027.2,000.0,037.9,030.8,30.5,-001.0,0017.38,0006.67,0005.27
2023-06-29 07:58:00,SystemResetWarning,0831.0,5.01,000.00,029.3,027.4,000.0,037.9,030.8,30.5,-003.0,0016.07,0006.59,0005.26
2023-06-29 07:59:00,SystemResetWarning,0831.0,5.00,000.00,029.3,027.6,000.0,037.9,030.9,30.4,-000.8,0015.80,0006.48,0005.25
